This is the latest recevied weather packets stored in our database for station/object K5NAN. If no packets are shown the sender has not sent any weather packets the latest 10 day(s).
| Time | Temp. | Humidity | Pressure | Rain* | Wind** | Luminosity | Snow |
|---|---|---|---|---|---|---|---|
| 1777558744 | 16.11° C | 87% | 1012.8 hPa | 0 mm | - | 179 W/m² | - |
| 1777558440 | 16.11° C | 87% | 1013 hPa | 0 mm | - | 172 W/m² | - |
| 1777558137 | 16.11° C | 88% | 1012.9 hPa | 0 mm | - | 181 W/m² | - |
| 1777557833 | 16.11° C | 88% | 1012.9 hPa | 0 mm | - | 172 W/m² | - |
| 1777557530 | 16.11° C | 89% | 1013.1 hPa | 0 mm | - | 131 W/m² | - |
| 1777557227 | 15.56° C | 89% | 1013.4 hPa | 0 mm | - | 127 W/m² | - |
| 1777556922 | 15.56° C | 90% | 1013.1 hPa | 0 mm | - | 138 W/m² | - |
| 1777556618 | 15.56° C | 90% | 1013 hPa | 0 mm | - | 120 W/m² | - |
| 1777556313 | 15.56° C | 91% | 1013 hPa | 0 mm | - | 106 W/m² | - |
| 1777556010 | 15.56° C | 91% | 1013.1 hPa | 0 mm | - | 98 W/m² | - |
| 1777555710 | 15.56° C | 92% | 1012.8 hPa | 0 mm | - | 110 W/m² | - |
| 1777555407 | 15.56° C | 92% | 1013 hPa | 0 mm | - | 110 W/m² | - |
| 1777555103 | 15.56° C | 93% | 1012.9 hPa | 0 mm | - | 97 W/m² | - |
| 1777554801 | 15.56° C | 94% | 1013.1 hPa | 0 mm | - | 96 W/m² | - |
| 1777554497 | 15.56° C | 94% | 1013 hPa | 0 mm | - | 103 W/m² | - |
| 1777554194 | 15.56° C | 94% | 1013.1 hPa | 0 mm | - | 125 W/m² | - |
| 1777553891 | 15° C | 95% | 1013.3 hPa | 0 mm | - | 128 W/m² | - |
| 1777553588 | 15° C | 95% | 1013.4 hPa | 0 mm | - | 109 W/m² | - |
| 1777553283 | 15° C | 95% | 1013.3 hPa | 0 mm | - | 91 W/m² | - |
| 1777552980 | 15° C | 95% | 1013 hPa | 0 mm | - | 75 W/m² | - |
| 1777552679 | 14.44° C | 95% | 1013.3 hPa | 0 mm | - | 71 W/m² | - |
| 1777552377 | 14.44° C | 95% | 1013.1 hPa | 0 mm | - | 42 W/m² | - |
| 1777552073 | 14.44° C | 95% | 1012.9 hPa | 0 mm | - | 37 W/m² | - |
| 1777551770 | 14.44° C | 95% | 1012.9 hPa | 0 mm | - | 32 W/m² | - |
| 1777551468 | 14.44° C | 95% | 1012.8 hPa | 0 mm | - | 29 W/m² | - |
* Rain latest hour (hover to see other rain measurements)
** Current wind speed in m/s (hover to see current wind gust speed)